Weather History for Red Oak, IA

Change the Weather History Date:

Saturday, February 9, 2013

  Actual Average Record
Temperature  
Mean Temperature 38 °F -  
Max Temperature 48 °F 34 °F 64 °F (2000)
Min Temperature 28 °F 10 °F -23 °F (1975)
Degree Days  
Heating Degree Days 27    
Moisture  
Dew Point 30 °F    
Average Humidity 76    
Maximum Humidity 86    
Minimum Humidity 58    
Precipitation  
Precipitation 0.00 in - - ()
Sea Level Pressure  
Sea Level Pressure 29.98 in    
Wind  
Wind Speed 13 mph (SSE)    
Max Wind Speed 20 mph    
Max Gust Speed 25 mph    
Visibility 8 miles    
Events Rain    
Averages and records for this station are not official NWS values.
T = Trace of Precipitation, MM = Missing Value Source: NWS Daily Summary

Daily Weather History Graph

Daily Weather History Graph

Search for Another Location

Airport:

Trip Planner

Search our weather history database for the weather conditions in past years. The results will help you decide how hot, cold, wet, or windy it might be!

Date:

Astronomy

Feb. 09, 2013 Rise Set
Actual Time 7:22 AM CST 5:48 PM CST
Civil Twilight 6:54 AM CST 6:17 PM CST
Nautical Twilight 6:21 AM CST 6:49 PM CST
Astronomical Twilight 5:49 AM CST 7:21 PM CST
Moon 6:34 AM CST (2/9) 5:32 PM CST (2/9)
Length of Visible Light 11h 22m
Length of Day
10h 25m
Waning Crescent, 0% of the Moon is Illuminated
Feb 9
Waning Crescent
Feb 10
New
Feb 17
First Quarter
Feb 25
Full
Mar 4
Last Quarter

Hourly Weather History & Observations

Time (CST) Temp. Windchill Dew Point Humidity Pressure Visibility Wind Dir Wind Speed Gust Speed Precip Events Conditions
12:15 AM 28.4 °F 19.1 °F 24.8 °F 86% 30.21 in 5.0 mi SSE 10.4 mph - N/A   Overcast
12:35 AM 28.4 °F 19.1 °F 24.8 °F 86% 30.21 in 5.0 mi SSE 10.4 mph 17.3 mph N/A   Overcast
12:55 AM 28.4 °F 17.0 °F 24.8 °F 86% 30.21 in 7.0 mi SSE 15.0 mph - N/A   Overcast
1:15 AM 28.4 °F 18.5 °F 24.8 °F 86% 30.20 in 7.0 mi SSE 11.5 mph - N/A   Overcast
1:35 AM 28.4 °F 18.5 °F 24.8 °F 86% 30.19 in 7.0 mi SSE 11.5 mph - N/A   Overcast
1:55 AM 30.2 °F 22.6 °F 24.8 °F 80% 30.19 in 7.0 mi SSE 8.1 mph - N/A   Overcast
2:15 AM 30.2 °F 20.8 °F 24.8 °F 80% 30.19 in 7.0 mi SSE 11.5 mph - N/A   Overcast
2:35 AM 30.2 °F 21.9 °F 24.8 °F 80% 30.19 in 7.0 mi SSE 9.2 mph 17.3 mph N/A   Overcast
2:55 AM 30.2 °F 21.3 °F 26.6 °F 86% 30.17 in 7.0 mi SSE 10.4 mph - N/A   Overcast
3:15 AM 30.2 °F 20.8 °F 26.6 °F 86% 30.16 in 5.0 mi SSE 11.5 mph - N/A   Overcast
3:35 AM 30.2 °F 18.9 °F 26.6 °F 86% 30.15 in 5.0 mi SE 16.1 mph 19.6 mph N/A   Overcast
3:55 AM 30.2 °F 19.3 °F 26.6 °F 86% 30.14 in 5.0 mi SSE 15.0 mph - N/A   Overcast
4:15 AM 30.2 °F 20.2 °F 26.6 °F 86% 30.14 in 5.0 mi SSE 12.7 mph 18.4 mph N/A   Haze
4:35 AM 30.2 °F 19.3 °F 26.6 °F 86% 30.13 in 7.0 mi SSE 15.0 mph 19.6 mph N/A   Overcast
4:55 AM 30.2 °F 20.8 °F 26.6 °F 86% 30.13 in 7.0 mi SSE 11.5 mph 18.4 mph N/A   Overcast
5:15 AM 30.2 °F 20.8 °F 26.6 °F 86% 30.12 in 5.0 mi SSE 11.5 mph - N/A   Haze
5:35 AM 30.2 °F 20.8 °F 26.6 °F 86% 30.12 in 5.0 mi SSE 11.5 mph - N/A   Haze
6:15 AM 30.2 °F 19.8 °F 26.6 °F 86% 30.10 in 5.0 mi SSE 13.8 mph 18.4 mph N/A   Overcast
6:35 AM 30.2 °F 20.2 °F 26.6 °F 86% 30.10 in 5.0 mi SSE 12.7 mph 19.6 mph N/A   Overcast
6:55 AM 30.2 °F 19.3 °F 26.6 °F 86% 30.09 in 5.0 mi SSE 15.0 mph 18.4 mph N/A   Overcast
7:15 AM 30.2 °F 21.3 °F 26.6 °F 86% 30.09 in 5.0 mi SSE 10.4 mph - N/A   Overcast
7:35 AM 30.2 °F 21.9 °F 26.6 °F 86% 30.09 in 7.0 mi SSE 9.2 mph 17.3 mph N/A   Overcast
7:55 AM 30.2 °F 21.3 °F 26.6 °F 86% 30.09 in 7.0 mi SSE 10.4 mph - N/A   Overcast
8:15 AM 30.2 °F 21.3 °F 26.6 °F 86% 30.09 in 5.0 mi SSE 10.4 mph - N/A   Overcast
8:35 AM 32.0 °F 24.2 °F 26.6 °F 80% 30.08 in 5.0 mi SSE 9.2 mph - N/A   Haze
8:55 AM 33.8 °F 26.4 °F 28.4 °F 81% 30.08 in 5.0 mi SSE 9.2 mph - N/A   Haze
9:15 AM 33.8 °F 25.3 °F 28.4 °F 81% 30.08 in 5.0 mi SSE 11.5 mph - N/A   Scattered Clouds
9:35 AM 35.6 °F 27.5 °F 30.2 °F 81% 30.08 in 7.0 mi SSE 11.5 mph - N/A   Scattered Clouds
9:55 AM 35.6 °F 27.1 °F 30.2 °F 81% 30.07 in 7.0 mi SSE 12.7 mph - N/A   Scattered Clouds
10:15 AM 37.4 °F 27.2 °F 30.2 °F 75% 30.06 in 10.0 mi SSE 19.6 mph 25.3 mph N/A   Scattered Clouds
10:35 AM 37.4 °F 27.5 °F 30.2 °F 75% 30.06 in 10.0 mi SSE 18.4 mph 21.9 mph N/A   Clear
10:55 AM 39.2 °F 30.8 °F 30.2 °F 70% 30.06 in 10.0 mi SSE 15.0 mph - N/A   Clear
11:15 AM 39.2 °F 30.2 °F 32.0 °F 75% 30.05 in 10.0 mi South 17.3 mph 23.0 mph N/A   Clear
11:35 AM 41.0 °F 32.5 °F 33.8 °F 76% 30.04 in 10.0 mi SSE 17.3 mph 21.9 mph N/A   Clear
11:55 AM 42.8 °F 34.5 °F 33.8 °F 70% 30.02 in 10.0 mi SSE 18.4 mph 21.9 mph N/A   Clear
12:15 PM 42.8 °F 34.5 °F 33.8 °F 70% 30.00 in 10.0 mi SSE 18.4 mph 23.0 mph N/A   Clear
12:35 PM 44.6 °F 37.2 °F 33.8 °F 66% 29.99 in 10.0 mi SSE 17.3 mph 25.3 mph N/A   Clear
12:55 PM 44.6 °F 36.9 °F 33.8 °F 66% 29.98 in 10.0 mi SSE 18.4 mph 23.0 mph N/A   Clear
1:15 PM 46.4 °F 39.0 °F 33.8 °F 62% 29.96 in 10.0 mi SSE 19.6 mph 25.3 mph N/A   Clear
1:35 PM 46.4 °F 39.5 °F 33.8 °F 62% 29.94 in 10.0 mi SSE 17.3 mph - N/A   Clear
1:55 PM 46.4 °F 39.5 °F 33.8 °F 62% 29.92 in 10.0 mi SE 17.3 mph 25.3 mph N/A   Clear
2:15 PM 46.4 °F 40.1 °F 33.8 °F 62% 29.90 in 10.0 mi SE 15.0 mph 24.2 mph N/A   Clear
2:55 PM 48.2 °F - 33.8 °F 58% 29.88 in 10.0 mi SE 15.0 mph 21.9 mph N/A   Clear
3:15 PM 48.2 °F - 33.8 °F 58% 29.87 in 10.0 mi SE 17.3 mph 21.9 mph N/A   Clear
3:35 PM 48.2 °F - 33.8 °F 58% 29.86 in 10.0 mi SE 15.0 mph - N/A   Clear
3:55 PM 48.2 °F - 33.8 °F 58% 29.86 in 10.0 mi SSE 17.3 mph 20.7 mph N/A   Clear
4:15 PM 48.2 °F - 33.8 °F 58% 29.85 in 10.0 mi SSE 17.3 mph 23.0 mph N/A   Clear
4:35 PM 46.4 °F 40.1 °F 33.8 °F 62% 29.85 in 10.0 mi SSE 15.0 mph 24.2 mph N/A   Clear
4:55 PM 44.6 °F 38.4 °F 33.8 °F 66% 29.85 in 10.0 mi SE 12.7 mph 19.6 mph N/A   Clear
5:15 PM 44.6 °F 38.4 °F 32.0 °F 61% 29.84 in 10.0 mi SE 12.7 mph 18.4 mph N/A   Clear
5:35 PM 42.8 °F 37.0 °F 32.0 °F 66% 29.84 in 10.0 mi SE 10.4 mph - N/A   Clear
5:55 PM 41.0 °F 34.3 °F 32.0 °F 70% 29.85 in 10.0 mi SE 11.5 mph - N/A   Scattered Clouds
6:15 PM 41.0 °F 33.9 °F 30.2 °F 65% 29.85 in 10.0 mi SE 12.7 mph - N/A   Clear
6:35 PM 39.2 °F 31.2 °F 30.2 °F 70% 29.84 in 10.0 mi SE 13.8 mph - N/A   Clear
6:55 PM 39.2 °F 32.0 °F 30.2 °F 70% 29.84 in 10.0 mi SE 11.5 mph 18.4 mph N/A   Clear
7:35 PM 39.2 °F 31.2 °F 32.0 °F 75% 29.82 in 10.0 mi SE 13.8 mph - N/A   Mostly Cloudy
7:55 PM 39.2 °F 31.6 °F 30.2 °F 70% 29.81 in 10.0 mi SE 12.7 mph 16.1 mph N/A   Mostly Cloudy
8:15 PM 39.2 °F 32.5 °F 32.0 °F 75% 29.81 in 10.0 mi SE 10.4 mph 16.1 mph N/A   Drizzle
8:35 PM 39.2 °F 33.0 °F 32.0 °F 75% 29.81 in 10.0 mi SE 9.2 mph - N/A   Drizzle
8:55 PM 39.2 °F 30.8 °F 32.0 °F 75% 29.79 in 7.0 mi SE 15.0 mph 23.0 mph N/A Rain Rain
9:15 PM 39.2 °F 31.6 °F 33.8 °F 81% 29.78 in 10.0 mi SE 12.7 mph 18.4 mph N/A   Overcast
9:35 PM 39.2 °F 30.5 °F 33.8 °F 81% 29.78 in 10.0 mi SE 16.1 mph 20.7 mph N/A   Overcast
9:55 PM 39.2 °F 30.8 °F 33.8 °F 81% 29.77 in 10.0 mi SE 15.0 mph 20.7 mph N/A   Overcast
10:15 PM 39.2 °F 30.2 °F 33.8 °F 81% 29.75 in 10.0 mi ESE 17.3 mph 25.3 mph N/A Rain Light Rain
10:35 PM 39.2 °F 32.5 °F 33.8 °F 81% 29.74 in 10.0 mi SE 10.4 mph 17.3 mph N/A   Overcast
10:55 PM 39.2 °F 31.6 °F 33.8 °F 81% 29.73 in 10.0 mi SE 12.7 mph - N/A   Overcast
11:15 PM 39.2 °F 32.0 °F 33.8 °F 81% 29.72 in 10.0 mi SE 11.5 mph - N/A   Overcast
11:35 PM 39.2 °F 31.2 °F 33.8 °F 81% 29.71 in 10.0 mi SE 13.8 mph 19.6 mph N/A   Overcast
11:55 PM 39.2 °F 31.6 °F 33.8 °F 81% 29.71 in 10.0 mi SE 12.7 mph 20.7 mph N/A   Overcast